RH
38 38 38 37 36 35 34 33 33 33 34 35 36 35 35 33 33 32 31 30 29 27 26 23 22 20 18 17 17 17 17 17 17 18 18 18 18 19 19 20 20 21 21 21 21 22 22 22 22 23 23 23 23 23 23 23 22 22 22 22 21 21 21 20 20 20 20 19 19
38 37 37 36 35 35 34 34 35 36 36 37 37 36 35 34 34 33 32 31 29 27 25 23 21 19 18 18 17 17 18 18 18 19 19 19 20 20 20 21 21 22 22 22 23 23 23 23 23 23 23 23 23 23 22 22 21 21 20 19 19 18 17 17 17 16 16 16 16
37 37 36 36 35 35 36 36 37 38 39 38 38 37 37 37 36 35 34 32 30 27 25 23 21 19 19 18 18 18 19 19 19 20 20 20 21 21 22 22 22 23 23 23 24 24 24 24 24 24 23 23 22 22 21 20 19 18 17 16 16 15 15 15 15 15 15 15 15
36 36 36 36 36 37 38 39 40 40 40 39 39 38 39 39 40 39 37 34 30 27 25 23 21 20 19 19 19 19 20 20 20 21 21 21 22 22 23 23 24 24 24 24 25 25 25 24 24 23 22 21 20 19 19 17 16 16 15 14 13 13 13 14 14 14 14 14 14
36 36 36 37 38 39 40 41 42 42 41 40 39 39 39 41 42 41 38 34 31 28 25 23 22 21 20 20 20 20 20 21 21 22 22 23 23 23 24 24 25 25 25 25 25 25 24 24 23 21 20 19 18 17 16 15 15 14 13 13 13 13 13 13 14 14 14 14 14
36 36 37 38 39 41 41 43 43 43 42 41 39 39 39 41 42 41 38 34 30 27 25 23 22 22 21 21 21 21 22 22 22 23 23 24 24 25 25 25 26 26 26 26 25 24 23 22 21 19 18 17 16 15 15 14 13 13 13 12 12 12 12 12 13 13 13 13 13
37 37 38 39 40 41 42 43 43 43 42 40 38 38 38 40 40 39 36 32 29 27 25 23 23 23 22 22 22 22 23 23 23 24 24 25 25 26 26 26 26 26 26 25 24 23 22 20 19 17 16 15 15 14 14 13 13 12 12 12 12 12 12 12 12 12 13 13 13
38 39 39 40 41 42 42 43 42 41 40 38 36 36 37 39 38 37 34 31 29 27 25 24 24 23 23 23 23 23 24 24 25 25 25 26 26 26 27 27 26 26 25 24 22 21 19 18 17 16 15 15 14 14 13 13 13 12 12 11 11 11 12 11 11 12 12 12 12
39 40 40 41 41 41 41 41 41 39 38 36 35 35 36 37 37 35 33 30 28 26 25 25 24 24 24 24 24 24 25 25 26 26 26 27 27 27 27 27 26 25 23 22 20 19 17 16 16 15 15 14 14 13 13 13 12 12 11 11 11 11 11 11 11 11 12 12 12
41 41 41 41 41 41 41 41 40 39 37 36 35 35 36 36 36 34 32 30 28 26 25 25 25 25 25 25 25 26 26 26 27 27 27 27 27 27 26 26 24 23 21 20 18 17 16 15 15 15 14 14 14 13 13 12 12 11 11 11 10 10 10 10 11 11 12 12 12
41 41 41 41 40 40 40 41 40 39 38 36 36 36 36 37 36 34 32 29 28 27 26 26 26 26 26 26 26 27 27 27 27 28 28 28 27 26 25 24 22 21 19 18 17 16 16 15 15 15 14 14 13 13 12 12 11 11 10 10 10 10 10 10 11 12 12 13 13
41 41 41 41 40 41 41 41 41 40 38 37 37 37 38 38 37 35 32 30 29 28 27 27 27 27 27 27 27 28 28 28 28 28 28 27 26 25 24 22 20 19 18 17 16 16 15 15 15 14 14 13 13 12 12 11 10 10 10 10 10 10 11 11 12 12 13 13 14
41 41 40 40 40 41 41 42 42 40 39 38 38 38 39 40 39 36 34 31 30 29 28 27 28 28 28 28 28 28 29 29 28 28 27 27 25 24 22 20 19 18 17 16 16 16 15 15 15 14 14 13 12 12 11 11 10 10 10 10 10 11 12 12 12 13 14 15 15
40 40 40 39 40 40 41 42 42 41 39 38 38 39 40 41 39 37 35 32 31 29 29 28 29 29 29 29 29 29 29 29 28 28 27 25 24 22 20 19 18 17 17 16 16 16 15 15 14 14 13 12 12 11 11 10 10 10 10 11 11 12 13 13 14 14 15 16 16
40 39 39 39 40 40 41 42 42 41 39 38 38 38 39 40 39 37 35 33 31 30 29 29 29 29 30 30 30 29 29 29 28 27 25 24 22 20 19 18 17 17 16 16 16 16 15 14 14 13 12 12 11 11 10 10 10 10 11 12 12 13 14 14 15 16 17 17 18
39 39 39 39 40 41 41 42 42 41 39 38 38 38 38 38 38 36 34 33 31 31 30 30 30 30 30 30 30 30 29 28 27 26 24 22 21 19 18 18 17 17 17 16 16 15 15 14 13 13 12 11 11 10 10 10 10 11 12 13 14 14 15 16 16 17 18 18 19
40 40 40 40 40 41 42 42 42 40 39 38 37 37 37 37 36 35 33 32 32 31 31 31 31 31 31 31 30 30 29 28 26 24 22 21 19 19 18 17 17 17 17 16 16 15 14 14 13 12 12 11 11 10 10 10 11 12 13 14 15 16 16 17 17 18 19 20 20
40 40 41 41 42 42 42 42 41 40 39 37 37 36 36 36 35 34 33 32 32 31 32 32 32 32 31 31 30 29 28 26 24 23 21 20 19 18 18 18 17 17 17 16 15 15 14 13 12 12 11 11 11 10 11 11 12 13 14 15 16 16 17 18 18 19 20 21 21
42 42 42 42 43 42 42 41 40 39 38 37 37 36 36 35 34 33 32 32 32 32 32 33 33 32 32 31 30 29 27 25 23 21 20 19 19 18 18 18 17 17 16 16 15 14 14 13 12 12 11 11 11 11 11 12 13 14 15 16 16 17 18 18 19 20 21 22 23
43 44 44 43 43 43 42 40 39 38 38 37 37 36 36 35 34 33 33 33 33 33 33 33 33 33 32 31 29 27 26 24 22 21 20 19 19 18 18 18 17 17 16 16 15 14 13 12 12 12 11 11 11 11 11 12 13 15 15 16 17 18 19 19 20 21 22 23 23
44 44 44 43 43 42 41 39 38 38 38 37 37 36 36 35 34 34 33 33 34 34 34 34 34 33 32 30 28 26 24 23 21 20 19 19 19 18 18 18 17 17 16 15 14 14 13 12 12 12 11 11 11 11 12 13 14 15 16 17 18 19 19 20 21 22 22 23 24
44 44 43 43 41 40 39 38 38 38 38 37 37 36 35 35 34 34 34 34 35 35 35 35 34 33 31 30 27 25 23 22 21 20 19 19 19 19 18 18 17 16 16 15 14 13 13 12 12 11 11 10 11 12 13 14 15 16 17 18 19 19 20 21 22 23 23 24 24
43 43 42 41 40 39 38 38 38 38 38 37 37 36 35 35 35 35 35 35 35 35 35 35 34 32 30 28 26 24 23 21 21 20 20 20 19 19 18 18 17 16 15 14 14 13 12 12 11 11 11 11 11 12 13 15 16 17 18 19 20 21 21 22 23 23 24 24 24
43 41 41 40 39 38 38 38 38 38 37 37 36 36 35 35 35 35 36 36 36 36 35 34 33 31 29 27 25 24 22 21 21 21 20 20 20 19 18 17 17 16 15 14 14 13 12 12 11 11 10 11 11 13 14 16 17 19 20 21 22 22 23 24 24 24 24 24 24
41 40 40 39 39 39 39 38 38 38 37 37 36 36 35 35 36 36 36 37 37 36 35 34 32 30 28 26 24 23 22 22 21 21 21 21 20 19 18 18 17 16 15 14 14 13 12 11 11 11 11 11 12 14 16 17 19 20 21 22 23 24 25 25 25 25 24 24 24
40 40 40 40 40 40 39 39 38 38 37 36 36 36 36 36 36 37 37 37 37 36 34 33 31 29 27 25 24 23 23 22 22 22 21 21 20 19 18 17 17 16 15 14 13 12 11 11 11 11 11 12 14 16 18 19 20 22 23 24 25 26 26 26 25 25 24 24 24
40 40 40 40 40 40 39 39 38 37 37 36 36 36 37 37 37 38 38 37 36 35 34 32 30 28 26 25 24 24 23 23 23 22 22 21 20 19 18 17 17 16 15 14 13 12 11 11 10 11 11 13 15 18 20 21 22 23 25 26 26 26 26 26 25 25 25 24 25
41 41 41 40 40 39 39 38 37 37 37 37 37 37 38 38 38 38 38 37 36 35 33 31 29 27 26 25 25 24 24 24 23 22 22 21 20 19 18 18 16 15 14 13 12 11 11 10 11 11 12 13 16 19 22 23 24 25 26 27 27 27 26 26 25 25 25 26 26
41 41 41 40 39 39 38 37 37 37 37 38 38 38 39 39 39 39 38 37 36 34 32 30 29 27 27 26 26 25 25 24 23 23 22 21 20 19 18 17 16 14 13 12 11 11 11 11 11 12 13 14 18 21 23 25 26 27 27 27 27 26 26 26 26 26 26 26 26
41 41 40 39 38 38 38 38 38 38 39 39 39 40 40 40 40 39 38 37 35 33 31 29 28 28 27 27 26 26 25 24 23 22 22 21 20 19 18 16 15 13 12 11 11 11 11 11 12 13 14 15 19 22 25 26 28 28 28 28 27 27 27 27 26 27 27 27 26
41 40 39 39 38 38 38 38 39 39 40 41 41 41 41 41 40 39 38 36 34 32 31 29 29 28 28 27 26 26 25 24 23 22 21 20 19 18 16 15 13 12 11 11 11 11 12 12 13 14 15 17 20 23 26 28 29 29 29 28 28 27 27 27 27 27 27 27 27
41 40 39 38 38 38 38 39 40 41 42 42 43 43 42 42 40 39 37 35 33 32 31 30 30 29 28 28 27 26 25 24 23 22 20 19 18 16 15 13 12 12 11 11 11 12 12 13 14 15 17 19 22 25 28 30 31 30 29 29 28 28 28 28 28 28 28 28 27
40 39 38 38 38 39 40 41 42 43 43 44 44 44 43 42 40 38 36 34 33 32 31 31 30 29 29 28 26 25 24 23 22 21 20 18 17 15 14 12 12 11 11 11 12 13 14 15 16 17 19 22 25 28 30 31 31 30 29 29 29 28 28 28 28 29 28 28 28
39 38 38 38 39 41 42 43 44 44 45 45 45 44 42 41 39 37 35 34 33 32 31 31 30 29 28 27 26 24 23 22 21 20 18 17 15 13 12 11 11 11 11 12 13 14 15 16 17 19 21 25 29 31 32 32 31 30 29 29 29 29 29 29 29 29 29 29 28
38 38 39 40 41 42 44 44 45 46 46 46 45 43 41 39 38 36 35 34 33 32 31 31 30 28 27 26 25 24 22 21 20 19 17 15 13 12 11 11 11 11 12 13 14 15 17 18 19 22 25 29 31 33 33 32 31 30 30 29 29 29 29 29 29 29 29 29 28
38 39 41 42 43 44 45 46 47 47 46 46 44 42 40 38 37 36 35 34 34 33 32 30 29 28 27 26 24 23 21 20 18 17 15 14 12 11 11 11 11 12 13 14 15 17 19 20 22 25 29 33 34 34 33 32 32 31 30 30 30 30 29 29 29 29 29 29 28
39 41 42 44 45 46 47 47 47 47 46 44 42 41 39 38 37 36 35 34 33 33 32 30 29 28 26 25 23 22 20 18 16 15 14 13 12 11 11 11 11 12 14 15 17 19 21 23 26 30 33 35 35 34 34 33 32 32 31 31 30 30 30 30 30 29 29 28 28
40 42 44 45 46 47 48 48 47 46 44 43 41 40 39 38 37 36 35 34 33 32 31 30 28 27 25 23 22 20 18 17 15 14 12 12 12 11 11 11 12 14 15 18 20 22 25 27 31 34 35 36 35 35 34 34 33 32 32 31 31 30 30 30 30 29 29 28 29
42 43 45 46 47 48 48 47 46 44 43 41 40 40 39 38 37 36 35 34 33 32 30 29 27 25 23 22 20 18 16 15 14 13 12 12 12 12 12 12 14 16 18 21 23 26 29 32 34 36 37 37 36 35 34 34 33 33 32 32 31 30 30 30 30 29 30 30 30
43 45 46 47 47 47 47 46 44 43 42 41 40 40 39 38 37 36 35 34 32 31 29 27 25 24 22 20 18 16 15 14 13 13 12 12 12 13 14 15 17 19 22 25 27 30 32 35 37 38 37 37 36 35 35 34 34 33 33 32 31 31 30 30 31 31 31 32 32
44 45 46 47 47 46 45 44 43 42 41 41 40 40 39 38 37 36 34 33 31 30 28 26 24 21 19 18 16 15 13 13 13 13 13 13 14 14 16 18 20 23 26 29 32 33 35 37 38 38 38 37 36 36 35 35 34 34 33 32 32 32 32 32 33 33 34 33 33